CW8490 Weather Reports


time (UTC)temp
C
wind
direction
speed
KPH
gust
KPH
rain 1hr
cm
rain 24hr
cm
rain mn
cm
humidity
%
barometer
mb
20260510230916 18 0 4.8 4.8 0.00 0.00 0.00 42 1020.3
20260510225916 20 0 3.2 3.2 0.00 0.00 0.00 40 1020.5
20260510224916 20 45 3.2 4.8 0.00 0.00 0.00 43 1020.5
20260510223916 20 23 3.2 4.8 0.00 0.00 0.00 43 1020.5
20260510222916 20 45 3.2 4.8 0.00 0.00 0.00 45 1020.4
20260510221916 20 23 1.6 1.6 0.00 0.00 0.00 39 1020.6
20260510220916 20 23 3.2 4.8 0.00 0.00 0.00 41 1020.4
20260510215916 20 23 8.0 12.9 0.00 0.00 0.00 41 1020.2
20260510214936 20 68 1.6 4.8 0.00 0.00 0.00 44 1020.2
20260510213936 20 23 1.6 3.2 0.00 0.00 0.00 46 1020.2
20260510212916 19 23 3.2 4.8 0.00 0.00 0.00 43 1020.1
20260510211916 19 0 3.2 6.4 0.00 0.00 0.00 46 1020.2
20260510210916 18 45 1.6 3.2 0.00 0.00 0.00 48 1020.3
20260510205916 18 23 3.2 4.8 0.00 0.00 0.00 42 1020.3
20260510204916 18 68 3.2 3.2 0.00 0.00 0.00 42 1020.4
20260510203916 18 0 4.8 6.4 0.00 0.00 0.00 40 1020.4
20260510202916 18 23 4.8 8.0 0.00 0.00 0.00 41 1020.4
20260510201916 18 23 3.2 4.8 0.00 0.00 0.00 42 1020.6
20260510200936 18 23 1.6 4.8 0.00 0.00 0.00 43 1020.7
20260510195916 18 23 1.6 3.2 0.00 0.00 0.00 48 1021.0
20260510194936 18 0 1.6 3.2 0.00 0.00 0.00 48 1021.1
20260510193936 18 338 3.2 3.2 0.00 0.00 0.00 42 1021.0
20260510192916 18 23 4.8 4.8 0.00 0.00 0.00 41 1021.2
20260510191916 18 0 3.2 4.8 0.00 0.00 0.00 43 1021.0
20260510190916 18 23 4.8 6.4 0.00 0.00 0.00 42 1020.8
20260510185916 18 0 4.8 8.0 0.00 0.00 0.00 45 1020.8
20260510184916 18 23 3.2 8.0 0.00 0.00 0.00 42 1020.9
20260510183916 18 338 1.6 3.2 0.00 0.00 0.00 41 1020.8
20260510182916 18 23 4.8 6.4 0.00 0.00 0.00 41 1020.9
20260510181916 18 0 1.6 3.2 0.00 0.00 0.00 40 1021.1
20260510180916 18 113 1.6 3.2 0.00 0.00 0.00 41 1021.2
20260510175916 18 23 1.6 3.2 0.00 0.00 0.00 40 1020.9
20260510174916 18 45 1.6 3.2 0.00 0.00 0.00 42 1021.0
20260510173916 18 68 1.6 3.2 0.00 0.00 0.00 45 1021.1
20260510172916 18 23 3.2 4.8 0.00 0.00 0.00 44 1021.0
20260510171916 17 23 3.2 6.4 0.00 0.00 0.00 42 1021.0
20260510170916 18 23 4.8 8.0 0.00 0.00 0.00 52 1021.1
20260510165916 17 23 4.8 6.4 0.00 0.00 0.00 44 1021.0
20260510164916 17 23 4.8 8.0 0.00 0.00 0.00 45 1020.9
20260510163956 18 23 6.4 9.7 0.00 0.00 0.00 44 1020.6
20260510162916 17 45 3.2 4.8 0.00 0.00 0.00 48 1020.6
20260510161916 17 23 6.4 8.0 0.00 0.00 0.00 47 1020.6
20260510160916 17 45 4.8 6.4 0.00 0.00 0.00 47 1020.8
20260510155916 17 23 4.8 11.3 0.00 0.00 0.00 53 1020.9
20260510154936 17 90 8.0 14.5 0.00 0.00 0.00 53 1020.8
20260510153916 16 338 4.8 6.4 0.00 0.00 0.00 54 1020.7
20260510152936 16 68 3.2 6.4 0.00 0.00 0.00 54 1020.5
20260510151936 15 68 4.8 8.0 0.00 0.00 0.00 53 1020.4
20260510150916 15 68 3.2 8.0 0.00 0.00 0.00 55 1020.3
20260510145916 15 113 4.8 8.0 0.00 0.00 0.00 52 1020.3
20260510144916 15 23 4.8 9.7 0.00 0.00 0.00 52 1020.4
20260510143917 14 23 1.6 4.8 0.00 0.00 0.00 56 1020.4
20260510142917 14 113 1.6 3.2 0.00 0.00 0.00 55 1020.4
20260510141916 13 23 3.2 3.2 0.00 0.00 0.00 53 1020.4
20260510140916 13 23 4.8 6.4 0.00 0.00 0.00 54 1020.2
20260510135916 13 23 3.2 4.8 0.00 0.00 0.00 53 1020.1
20260510134956 13 0.0 0.0 0.00 0.00 0.00 55 1020.1
20260510134037 13 23 3.2 6.4 0.00 0.00 0.00 57 1019.9
20260510133017 13 23 3.2 4.8 0.00 0.00 0.00 54 1019.8
20260510132017 13 23 4.8 6.4 0.00 0.00 0.00 55 1019.7
20260510131017 13 23 4.8 4.8 0.00 0.00 0.00 55 1019.6
20260510130016 12 0 4.8 6.4 0.00 0.00 0.00 56 1019.5
20260510125017 12 23 3.2 4.8 0.00 0.00 0.00 54 1019.3
20260510124017 12 23 4.8 4.8 0.00 0.00 0.00 52 1019.0
20260510123016 13 23 3.2 6.4 0.00 0.00 0.00 54 1019.0
20260510122057 13 23 3.2 4.8 0.00 0.00 0.00 54 1018.6
20260510121037 13 23 1.6 3.2 0.00 0.00 0.00 54 1018.2
20260510120121 13 0.0 0.0 0.00 0.00 0.00 55 1018.0
20260510120018 13 0.0 0.0 0.00 0.00 0.00 55 1018.1
20260510114917 13 23 3.2 4.8 0.00 0.00 0.00 55 1018.1
20260510113917 13 23 3.2 4.8 0.00 0.00 0.00 54 1017.9
20260510112937 13 45 4.8 6.4 0.00 0.00 0.00 54 1017.7
20260510111917 13 23 4.8 6.4 0.00 0.00 0.00 55 1017.7
20260510110937 13 23 4.8 6.4 0.00 0.00 0.00 56 1017.7
20260510105917 13 23 3.2 4.8 0.00 0.00 0.00 56 1017.6
20260510104917 13 23 4.8 6.4 0.00 0.00 0.00 56 1017.6
20260510103917 13 23 4.8 4.8 0.00 0.00 0.00 56 1017.3
20260510102917 13 23 3.2 4.8 0.00 0.00 0.00 55 1017.2
20260510101937 13 23 3.2 6.4 0.00 0.00 0.00 55 1017.0
20260510100917 14 23 4.8 6.4 0.00 0.00 0.00 55 1016.8
20260510095917 14 45 3.2 8.0 0.00 0.00 0.00 54 1016.5
20260510094917 14 23 3.2 6.4 0.00 0.00 0.00 56 1016.6
20260510093937 15 45 1.6 4.8 0.00 0.03 0.00 57 1016.7
20260510092917 15 23 6.4 8.0 0.00 0.03 0.00 57 1016.4
20260510091917 15 23 6.4 8.0 0.00 0.03 0.00 58 1016.3
20260510090917 15 23 3.2 4.8 0.00 0.03 0.00 58 1016.3
20260510085917 15 23 4.8 6.4 0.00 0.03 0.00 60 1016.3
20260510084917 15 45 3.2 4.8 0.00 0.03 0.00 62 1016.1
20260510083937 15 23 6.4 9.7 0.00 0.03 0.00 64 1015.9
20260510082917 16 0 6.4 8.0 0.00 0.03 0.00 67 1015.9
20260510081917 16 23 8.0 11.3 0.00 0.03 0.00 67 1015.6
20260510080957 16 23 4.8 4.8 0.00 0.03 0.00 69 1015.8
20260510075917 16 0 4.8 6.4 0.00 0.03 0.00 70 1015.6
20260510074917 16 23 3.2 4.8 0.00 0.03 0.00 70 1015.3
20260510073917 16 23 3.2 4.8 0.00 0.03 0.00 71 1015.2
20260510072917 16 0.0 0.0 0.00 0.03 0.00 70 1015.1
20260510071917 16 0.0 0.0 0.00 0.03 0.00 70 1014.7
20260510070917 16 0.0 0.0 0.00 0.03 0.00 69 1014.7
20260510065937 16 0.0 0.0 0.00 0.03 0.00 69 1014.4
20260510064917 16 23 1.6 3.2 0.00 0.03 0.00 68 1014.5
20260510063917 16 90 1.6 3.2 0.00 0.03 0.00 66 1014.2
20260510062917 16 0.0 0.0 0.00 0.03 0.00 69 1014.4
20260510061917 17 0.0 0.0 0.00 0.03 0.00 68 1014.8
20260510060917 17 0.0 0.0 0.00 0.03 0.00 64 1014.7
20260510055917 17 0.0 0.0 0.00 0.03 0.00 65 1014.3
20260510054937 17 68 1.6 4.8 0.00 0.03 0.00 61 1014.1
20260510053917 18 113 3.2 3.2 0.00 0.03 0.00 64 1014.2
20260510052937 18 315 1.6 3.2 0.00 0.03 0.00 59 1014.2
20260510051937 18 90 1.6 1.6 0.00 0.03 0.00 57 1014.0
20260510050917 18 90 3.2 6.4 0.00 0.03 0.00 58 1013.7
20260510045916 18 113 1.6 3.2 0.00 0.05 0.05 60 1013.1
20260510044916 18 0.0 1.6 0.00 0.05 0.05 61 1012.8
20260510043916 18 68 3.2 4.8 0.00 0.05 0.05 59 1012.4
20260510042936 19 45 4.8 6.4 0.00 0.05 0.05 61 1012.4
20260510041916 19 23 6.4 8.0 0.00 0.05 0.05 60 1012.2
20260510040916 19 45 4.8 6.4 0.00 0.05 0.05 62 1012.4
20260510035916 20 23 8.0 9.7 0.00 0.05 0.05 63 1012.3
20260510034956 19 23 6.4 6.4 0.00 0.05 0.05 65 1012.0
20260510033916 18 23 9.7 9.7 0.00 0.05 0.05 69 1012.4
20260510032916 18 0.0 0.0 0.00 0.05 0.05 68 1012.3
20260510031916 18 0.0 0.0 0.00 0.05 0.05 66 1011.8
20260510030916 18 0.0 1.6 0.00 0.05 0.05 66 1011.5
20260510025936 18 0.0 0.0 0.00 0.05 0.05 66 1011.3
20260510024916 18 0.0 0.0 0.00 0.05 0.05 65 1011.1
20260510023956 18 0.0 0.0 0.00 0.05 0.05 65 1010.8
20260510022916 19 0.0 0.0 0.00 0.05 0.05 63 1010.5
20260510021942 20 0.0 0.0 0.00 0.05 0.05 60 1010.5
20260510021416 20 23 1.6 3.2 0.00 0.05 0.05 59 1010.3
20260510020416 21 23 3.2 4.8 0.00 0.05 0.05 59 1010.1
20260510015416 21 0 3.2 4.8 0.00 0.05 0.05 58 1010.0
20260510014436 21 0 3.2 3.2 0.00 0.05 0.05 56 1009.7
20260510013416 21 23 4.8 6.4 0.00 0.05 0.05 56 1009.6
20260510012416 21 0 8.0 11.3 0.00 0.05 0.05 58 1009.2
20260510011456 21 23 3.2 4.8 0.00 0.05 0.05 56 1009.4
20260510010437 22 23 3.2 4.8 0.00 0.05 0.05 55 1009.2
20260510005416 22 0 4.8 6.4 0.00 0.05 0.05 53 1008.9
20260510004416 23 0 6.4 8.0 0.00 0.05 0.05 51 1008.8
20260510003416 23 0 6.4 8.0 0.00 0.05 0.05 51 1008.7
20260510002416 23 23 4.8 6.4 0.00 0.05 0.05 50 1008.3
20260510001417 23 0 4.8 8.0 0.00 0.05 0.05 51 1008.2
20260510000418 24 0 3.2 4.8 0.00 0.05 0.05 50 1008.1
20260509235416 24 0 4.8 8.0 0.00 0.05 0.05 50 1007.9
20260509234436 24 0 4.8 8.0 0.00 0.05 0.05 48 1007.9
20260509233436 25 23 6.4 8.0 0.00 0.05 0.05 47 1007.8
20260509232417 26 0.0 1.6 0.00 0.05 0.05 47 1007.5